Address 0x5cc5c3a07c4f34bc72afc373e79dfc7936102856 1

 
Txn Hash Method
Block
From
To
Value [Txn Fee]
0xbfc08c310cc1861c3eb958d962d963f8f8400346849ba2c8d28f60ee52b20d0dDeposit Native T...414215932022-11-26 17:06:0622 hrs 36 mins ago0x5cc5c3a07c4f34bc72afc373e79dfc7936102856OUT0xc0e02aa55d10e38855e13b64a8e1387a04681a000.001 ETH0.00001883
0x0af86e197c5f0c4099428e7e62b68f45b9c96f1328929a9a42b3dc82a8be45fd0x33123926413894782022-11-26 14:34:051 day 1 hr ago0x5cc5c3a07c4f34bc72afc373e79dfc7936102856OUT 0x9e6ef7f75ad88d4edb4c9925c94b769c5b0d62810 ETH0.00004612
0x3a0db795db8c32f33601b9ea84d7ab120cbf9f32d100485fa5da58cfc0e8f926Transfer413833942022-11-26 14:06:351 day 1 hr ago0x5cc5c3a07c4f34bc72afc373e79dfc7936102856OUT0x80c67432656d59144ceff962e8faf8926599bcf80.040500000000009 ETH0.00001043
0xab1b5761e4372827f0c652ab54ae3cce4ea233a10419d3344b0610203007d3f7Fulfill Order413828152022-11-26 14:04:041 day 1 hr ago0x5cc5c3a07c4f34bc72afc373e79dfc7936102856OUT 0x998ef16ea4111094eb5ee72fc2c6f4e6e86476660.0001 ETH0.00006369
0x118bede086cfb2a00a89fa3529abb426f94db5e747078d580af0c1ed03c8cf9fDeposit Native413816182022-11-26 13:58:411 day 1 hr ago0x5cc5c3a07c4f34bc72afc373e79dfc7936102856OUT 0x7a08b29a7ad4a19a5eca0c82f5f082872488d1350.04 ETH0.00001431
0x8f1cf5ff26a035f71e1243f7de4ddc5b0109b79818ea2cd20b76bfd6f04a784eSwap413807412022-11-26 13:54:371 day 1 hr ago0x5cc5c3a07c4f34bc72afc373e79dfc7936102856OUT0xdd94018f54e565dbfc939f7c44a16e163faab3310 ETH0.0000422
0x73772b1baa9de0a2d0fff82a9b5455935d322e930b9c19f064e3f5d5ba1585d0Approve413806362022-11-26 13:54:031 day 1 hr ago0x5cc5c3a07c4f34bc72afc373e79dfc7936102856OUT 0x82af49447d8a07e3bd95bd0d56f35241523fbab10 ETH0.0000184
0xa0fb8ccd1647b703e8abd84075d6a181f30d2a6029dac94e6db0a92e269beedeSwap413804482022-11-26 13:53:111 day 1 hr ago0x5cc5c3a07c4f34bc72afc373e79dfc7936102856OUT0xdd94018f54e565dbfc939f7c44a16e163faab3310.04 ETH0.00004467
0x0ef2bc42aca75526afa7a8f3e57fb726f1c734faeb05d6300bd3bbfb2e6a1a20Swap413801442022-11-26 13:51:481 day 1 hr ago0x5cc5c3a07c4f34bc72afc373e79dfc7936102856OUT0xdd94018f54e565dbfc939f7c44a16e163faab3310 ETH0.00006454
0x4501ae1b4ca2d242f6a5fa4c1491fb4d2d1c7b055f7d702be960fd1eb968591fApprove413800112022-11-26 13:51:121 day 1 hr ago0x5cc5c3a07c4f34bc72afc373e79dfc7936102856OUT 0xff970a61a04b1ca14834a43f5de4533ebddb5cc80 ETH0.00001906
0x3a2eb77c488b978c82d78a44f681d9bdc06d20630268a054beafd67cd86e1ac1Swap413798462022-11-26 13:50:271 day 1 hr ago0x5cc5c3a07c4f34bc72afc373e79dfc7936102856OUT0xdd94018f54e565dbfc939f7c44a16e163faab3310.04 ETH0.00009928
0xec41e939a3ec4dc2e5abd8b4e6c83e2cde744639117325596cce658fe6f9e1afWithdraw413789442022-11-26 13:46:141 day 1 hr ago0x5cc5c3a07c4f34bc72afc373e79dfc7936102856OUT 0x82af49447d8a07e3bd95bd0d56f35241523fbab10 ETH0.00001471
0x31c1a4742554d1174de0f7ae56072b848cf209438034030debae3411f4325315Approve413788102022-11-26 13:45:331 day 1 hr ago0x5cc5c3a07c4f34bc72afc373e79dfc7936102856OUT 0x82af49447d8a07e3bd95bd0d56f35241523fbab10 ETH0.00001806
0x1303abff8db6aa92e2bd033f1e4d48a516396ac4a4b4d1a200dbd10d38138eefDeposit413786442022-11-26 13:44:461 day 1 hr ago0x5cc5c3a07c4f34bc72afc373e79dfc7936102856OUT 0x82af49447d8a07e3bd95bd0d56f35241523fbab10.04 ETH0.00001442
0xeaa573513400bd13557a897f5d7c317e47444b299ef034e5221ba80e9431029d0x06e75722413783802022-11-26 13:43:261 day 1 hr ago0x5cc5c3a07c4f34bc72afc373e79dfc7936102856OUT 0x5543550d65813c1fa76242227cbba0a28a2977710 ETH0.00005575
0x052bd2c525b9606b76d4a7abc753b98d0e96b78229cc8e9fe16896bf058a4b87Approve413782272022-11-26 13:42:521 day 1 hr ago0x5cc5c3a07c4f34bc72afc373e79dfc7936102856OUT 0xff970a61a04b1ca14834a43f5de4533ebddb5cc80 ETH0.0000205
0x4e85acf6c77eb0b54cbed44cda8a6f11451d7fcc829d5ac8db2828ba05f3755eAdd Liquidity408591292022-11-24 15:19:373 days 22 mins ago0x5cc5c3a07c4f34bc72afc373e79dfc7936102856OUT Hop Protocol: USDC Liquidity Pool0 ETH0.00005005
0x07e027c6ef4656970cea803a0b90aae7e2334dd7c47d5da3d45bdda4cbd6ea24Approve408590902022-11-24 15:19:263 days 22 mins ago0x5cc5c3a07c4f34bc72afc373e79dfc7936102856OUT 0xff970a61a04b1ca14834a43f5de4533ebddb5cc80 ETH0.00002147
0xb2d9d055f5c578da8ffb770efa9c413cfc496a93caf9adf8c0ac24be4e93963b0x06e75722408587032022-11-24 15:17:523 days 24 mins ago0x5cc5c3a07c4f34bc72afc373e79dfc7936102856OUT 0x5543550d65813c1fa76242227cbba0a28a2977710.04 ETH0.00006309
0x3ce7464d4cc8a312cb0ef4ece52307c0c7e92b5c9adda0dcf2b185e5eb7b93580x06e75722408586122022-11-24 15:17:253 days 24 mins ago0x5cc5c3a07c4f34bc72afc373e79dfc7936102856OUT 0x5543550d65813c1fa76242227cbba0a28a2977710.00001 ETH0.00006247
0x385fdb68c839db1c66902d13331c7886e31fa1770923794244de1cb342492d9bSwap Exact ETH F...408581272022-11-24 15:15:093 days 27 mins ago0x5cc5c3a07c4f34bc72afc373e79dfc7936102856OUT SushiSwap: Router0.00001 ETH0.0000439
0x0316a859e259a534be90257fa004e86bc2fc24f8ad158274d80d307b287f30daSwap Exact ETH F...408580112022-11-24 15:14:343 days 27 mins ago0x5cc5c3a07c4f34bc72afc373e79dfc7936102856OUT SushiSwap: Router0.00004 ETH0.00004373
0x8b15a4cfeffc152927803cd011ae5561e145cd98605860a171650bb43c8e8ef6Swap Exact ETH F...408579072022-11-24 15:14:033 days 28 mins ago0x5cc5c3a07c4f34bc72afc373e79dfc7936102856OUT SushiSwap: Router0.00001 ETH0.00006226
0xadebf4e2dad04fee540b30e08e875878fa0fa422e1293f7b4bb2700a1602e538Swap Exact ETH F...408578122022-11-24 15:13:373 days 28 mins ago0x5cc5c3a07c4f34bc72afc373e79dfc7936102856OUT SushiSwap: Router0.0002 ETH0.00005383
0x28f5b64c265c8088da3055f201e316af88f5760b5cf010ae9be3cf3f8b0330aaSwap Exact ETH F...408577112022-11-24 15:13:083 days 29 mins ago0x5cc5c3a07c4f34bc72afc373e79dfc7936102856OUT SushiSwap: Router0.00001 ETH0.00004287
[ Download CSV Export 
Latest 5 internal transactions
Parent Txn Hash Block From To Value
0x1b385f81e0521cbd7e015e49149db90da231afc06338abb9912f9ac2866281e2413821832022-11-26 14:01:211 day 1 hr ago 0x7a08b29a7ad4a19a5eca0c82f5f082872488d1350x5cc5c3a07c4f34bc72afc373e79dfc79361028560.03994 ETH
0x8f1cf5ff26a035f71e1243f7de4ddc5b0109b79818ea2cd20b76bfd6f04a784e413807412022-11-26 13:54:371 day 1 hr ago 0xdd94018f54e565dbfc939f7c44a16e163faab3310x5cc5c3a07c4f34bc72afc373e79dfc79361028560.04 ETH
0x0ef2bc42aca75526afa7a8f3e57fb726f1c734faeb05d6300bd3bbfb2e6a1a20413801442022-11-26 13:51:481 day 1 hr ago 0xdd94018f54e565dbfc939f7c44a16e163faab3310x5cc5c3a07c4f34bc72afc373e79dfc79361028560.039980736577187691 ETH
0xec41e939a3ec4dc2e5abd8b4e6c83e2cde744639117325596cce658fe6f9e1af413789442022-11-26 13:46:141 day 1 hr ago 0x82af49447d8a07e3bd95bd0d56f35241523fbab10x5cc5c3a07c4f34bc72afc373e79dfc79361028560.04 ETH
0xeaa573513400bd13557a897f5d7c317e47444b299ef034e5221ba80e9431029d413783802022-11-26 13:43:261 day 1 hr ago 0x63850f9dccfc839534d5dc69333403c90c10c6fd0x5cc5c3a07c4f34bc72afc373e79dfc79361028560.039056646308475979 ETH
[ Download CSV Export 
Loading

Contract Name:
0 ETH

Compiler Version
0

Optimization Enabled:
0 ETH

Other Settings:
-NA-
Block Transaction Gas Used Reward
Age Block Fee Address BC Fee Address Voting Power Jailed Incoming
Block Uncle Number Difficulty Gas Used Reward
Loading
Make sure to use the "Vote Down" button for any spammy posts, and the "Vote Up" for interesting conversations.